This is the latest recevied weather packets stored in our database for station/object N2PUI. If no packets are shown the sender has not sent any weather packets the latest 10 day(s).
| Time | Temp. | Humidity | Pressure | Rain* | Wind** | Luminosity | Snow |
|---|---|---|---|---|---|---|---|
| 1777501261 | 11.67° C | 91% | 1007.8 hPa | 0 mm | - | 25 W/m² | - |
| 1777500959 | 11.67° C | 90% | 1007.9 hPa | 0 mm | - | 29 W/m² | - |
| 1777500657 | 11.67° C | 90% | 1008 hPa | 1.27 mm | - | 24 W/m² | - |
| 1777500353 | 11.67° C | 91% | 1008 hPa | 1.78 mm | - | 22 W/m² | - |
| 1777500049 | 12.22° C | 91% | 1008.2 hPa | 1.78 mm | - | 20 W/m² | - |
| 1777499746 | 12.22° C | 91% | 1008.3 hPa | 0 mm | - | 33 W/m² | - |
| 1777499443 | 12.22° C | 90% | 1008.3 hPa | 1.27 mm | - | 34 W/m² | - |
| 1777499141 | 12.22° C | 90% | 1008.1 hPa | 3.05 mm | - | 36 W/m² | - |
| 1777498837 | 12.22° C | 90% | 1008.4 hPa | 3.05 mm | - | 28 W/m² | - |
| 1777498534 | 12.22° C | 89% | 1008.2 hPa | 1.27 mm | - | 23 W/m² | - |
| 1777498230 | 12.22° C | 89% | 1008.1 hPa | 0 mm | - | 28 W/m² | - |
| 1777497929 | 12.22° C | 88% | 1008.3 hPa | 0 mm | - | 24 W/m² | - |
| 1777497624 | 12.78° C | 88% | 1008.5 hPa | 0 mm | - | 27 W/m² | - |
| 1777497321 | 12.78° C | 88% | 1008.6 hPa | 0 mm | - | 33 W/m² | - |
| 1777497016 | 12.78° C | 87% | 1008.6 hPa | 1.78 mm | - | 30 W/m² | - |
| 1777496714 | 12.78° C | 86% | 1008.6 hPa | 3.05 mm | - | 36 W/m² | - |
| 1777496410 | 12.78° C | 85% | 1008.8 hPa | 3.05 mm | - | 46 W/m² | - |
| 1777496107 | 13.33° C | 83% | 1009 hPa | 3.56 mm | - | 43 W/m² | - |
| 1777495803 | 13.33° C | 81% | 1008.9 hPa | 1.78 mm | - | 30 W/m² | - |
| 1777495499 | 13.89° C | 80% | 1009.1 hPa | 0 mm | - | 18 W/m² | - |
| 1777495195 | 13.89° C | 79% | 1009.1 hPa | 0 mm | - | 20 W/m² | - |
| 1777494892 | 13.89° C | 78% | 1008.9 hPa | 0 mm | - | 19 W/m² | - |
| 1777494589 | 13.89° C | 78% | 1008.9 hPa | 0 mm | - | 24 W/m² | - |
| 1777494287 | 13.89° C | 78% | 1009.2 hPa | 0 mm | - | 24 W/m² | - |
| 1777493983 | 13.89° C | 78% | 1008.9 hPa | 0 mm | - | 43 W/m² | - |
* Rain latest hour (hover to see other rain measurements)
** Current wind speed in m/s (hover to see current wind gust speed)